[[{"header":{"parameterUnit":"m.s-1","parameterCategory":1,"la1":30.2991,"la2":30.254,"lo1":-89.0895,"lo2":-89.0444,"dy":0.0017,"dx":0.0017,"nx":28,"ny":28,"refTime":"2023-08-11T03:00:00:Z","depth":0,"parameterNumber":2,"parameterNumberName":"U-component_of_WINDS"},"data":[0,0,0,0,0,0,0,0,0,0,0,0,0,0,0,0,0,0,0,0,0,0,0,0,0,0,0,0,0,0,0,0,0,0,0,0,0,0,0,0,0,0,0,0,0,0,0,0,0,0,0,0,0,0,0,0,0,0,5.5496,5.5497,0,5.5643,5.5644,5.5646,5.5588,5.5585,5.5581,5.5578,5.5729,5.5736,5.5743,0,0,0,0,0,0,0,0,0,0,0,0,0,5.5166,5.5172,5.5496,5.5497,5.5499,5.5642,5.5644,5.5646,5.5589,5.5585,5.5581,5.5577,5.5726,5.5735,5.5744,0,0,0,0,0,0,0,0,0,0,0,0,0,5.531,5.5174,5.5495,5.5488,5.5489,5.5642,5.5644,5.5647,5.559,5.5585,5.5579,5.5575,5.5724,5.5734,5.5745,5.5914,0,0,5.5778,5.5782,0,0,0,0,0,0,0,0,5.5302,5.5322,5.5487,5.5489,5.549,5.5592,5.5583,5.5736,5.5591,5.5551,5.5578,5.5572,5.5687,5.5701,5.574,5.5921,5.5927,5.5779,5.5785,5.579,5.5793,0,0,0,0,0,0,0,5.5292,5.5316,5.5554,5.549,5.5491,5.5477,5.5492,5.5612,5.5646,5.5554,5.5551,5.5569,5.5687,5.5729,5.5743,5.593,5.5778,5.5788,5.5795,5.5799,5.6256,5.6262,0,0,0,0,0,0,5.5282,5.5308,5.5549,5.5558,5.5381,5.5487,5.5504,5.5564,5.5645,5.5652,5.5573,5.5566,5.5713,5.573,5.5748,5.595,5.579,5.58,5.5806,5.6251,5.6257,5.6264,0,0,0,0,0,0,5.5275,5.5304,5.5543,5.5432,5.5461,5.5498,5.5567,5.557,5.5612,5.5659,5.5665,5.561,5.571,5.5733,5.5873,5.5955,5.5805,5.5815,5.6244,5.6253,5.626,5.6357,0,0,0,0,0,0,5.5266,5.5302,5.5366,5.5434,5.5468,5.5666,5.5572,5.5576,5.5631,5.5622,5.5695,5.5702,5.5708,5.5857,5.5884,5.5967,5.5823,5.6237,5.6248,5.6258,5.6346,5.6368,5.6386,0,0,0,0,0,5.5254,5.5388,5.537,5.5399,5.5549,5.5671,5.569,5.5694,5.5638,5.5703,5.5733,5.57,5.5942,5.5872,5.5901,5.5989,5.6231,5.6245,5.6257,5.6338,5.6363,5.6385,0,0,0,0,0,0,5.5329,5.5397,5.5377,5.5537,5.5599,5.5661,5.5743,5.5721,5.58,5.5789,5.579,5.5807,5.5951,5.5984,5.5905,5.6156,5.6078,5.6097,5.6129,5.6154,5.6173,5.6162,5.5832,0,0,0,0,0,5.5364,5.5458,5.5511,5.5647,5.5679,5.5706,5.5759,5.5757,5.582,5.5846,5.5886,5.595,5.604,5.6099,5.6185,5.6351,5.6366,5.6426,5.6446,5.6462,5.6478,5.6568,5.6595,5.6305,5.6305,5.6305,0,0,5.5438,5.5486,5.5545,5.5664,5.5711,5.5807,5.5728,5.5833,5.5905,5.5862,5.5996,5.6029,5.6099,5.6253,5.6323,5.6285,5.6561,5.6478,5.649,5.6498,5.6583,5.6611,5.6635,5.6314,5.6313,5.6311,0,0,5.5621,5.5667,5.5785,5.5834,5.5906,5.5923,5.5952,5.6018,5.6037,5.6172,5.6142,5.6227,5.6382,5.6433,5.648,5.6682,5.6654,5.671,5.6812,5.6899,5.6922,5.6942,5.7013,5.7039,5.6727,5.6727,5.6727,0,5.5703,5.5846,5.5848,5.5956,5.6008,5.5974,5.6093,5.6141,5.6238,5.6275,5.6231,5.6425,5.647,5.6635,5.6684,5.6724,5.6756,5.6701,5.6919,5.6939,5.6958,5.7026,5.7052,5.6733,5.6732,5.6732,5.6731,0,5.5943,5.6043,5.613,5.6224,5.6286,5.6399,5.6418,5.6481,5.6473,5.6495,5.6633,5.6686,5.6781,5.682,5.6814,5.6985,5.6959,5.6917,5.6838,5.6992,5.7055,5.7081,5.6742,5.674,5.6738,5.6736,0,0,5.6177,5.627,5.6302,5.6344,5.6422,5.6499,5.661,5.6703,5.6757,5.6825,5.6918,5.705,5.7012,5.7065,5.7064,5.7141,5.7296,5.709,5.7092,5.7125,5.7486,5.7516,5.7546,5.7279,5.7284,5.7288,5.748,0,5.6365,5.6559,5.6564,5.6742,5.6834,5.6803,5.69,5.6958,5.6981,5.7063,5.7089,5.7182,5.7125,5.7157,5.7232,5.7262,5.7369,5.7248,5.7364,5.7369,5.7346,5.7579,5.7611,5.779,5.7505,5.7509,5.7512,0,5.661,5.6685,5.6873,5.6936,5.6975,5.7062,5.7147,5.7225,5.729,5.7302,5.7361,5.7349,5.7462,5.738,5.7536,5.7454,5.7502,5.7524,5.7531,5.7541,5.7448,5.7594,5.7847,5.7873,5.7552,5.7548,5.7546,0,5.676,5.6909,5.7039,5.7076,5.7154,5.7216,5.7251,5.7311,5.7366,5.7441,5.7477,5.7564,5.7612,5.768,5.7691,5.7631,5.7847,5.7767,5.7859,5.7859,5.7905,5.7901,5.8167,5.7938,5.7938,5.7937,5.7937,0,5.6968,5.7084,5.7108,5.7188,5.7316,5.7321,5.7448,5.7478,5.7532,5.7617,5.7597,5.7677,5.7688,5.7772,5.7782,5.7909,5.7931,5.7943,5.7944,5.7944,5.7942,5.7974,5.7962,5.7945,5.7943,5.7942,5.794,0,5.7157,5.7178,5.7318,5.738,5.7399,5.749,5.7543,5.762,5.7641,5.775,5.7776,5.7809,5.7906,5.7925,5.804,5.8047,5.8197,5.8187,5.8175,5.8173,5.8264,5.8255,5.8559,5.8598,5.8345,5.8347,5.8349,0,5.7288,5.7376,5.7448,5.7503,5.7541,5.7632,5.7688,5.7696,5.7755,5.7836,5.7903,5.7998,5.8074,5.8231,5.8265,5.8353,5.8343,5.8444,5.8356,5.8353,5.8343,5.8337,5.8345,5.846,5.8463,5.8465,5.8467,0,5.7518,5.7524,5.7606,5.7691,5.7759,5.7827,5.7891,5.7938,5.7954,5.8022,5.8121,5.818,5.8297,5.8391,5.8479,5.8515,5.8494,5.8494,5.852,5.852,5.8509,5.8515,5.8219,5.8487,5.8485,5.8483,5.8482,5.8482,5.7681,5.7758,5.7819,5.7911,5.796,5.802,5.8095,5.8126,5.8208,5.8304,5.8304,5.8412,5.8474,5.8589,5.8631,5.8716,5.8684,5.8721,5.8731,5.8739,5.8747,5.8497,5.8732,5.8731,5.8731,5.873,5.873,0,5.7909,5.7947,5.8031,5.8121,5.8193,5.8167,5.8237,5.8299,5.8394,5.8454,5.8529,5.8642,5.8734,5.8775,5.8865,5.8925,5.8917,5.8948,5.8943,5.8951,5.8771,5.8739,5.8952,5.8952,5.8952,5.8952,5.8952,5.8952,5.8036,5.8163,5.8176,5.8327,5.8365,5.847,5.8512,5.8567,5.8615,5.8742,5.8817,5.8844,5.8896,5.899,5.9072,5.9082,5.9116,5.9151,5.9156,5.8987,5.8964,5.8943,5.8912,5.9158,5.9159,5.9329,5.933,5.9331]},{"header":{"parameterUnit":"m.s-1","parameterCategory":1,"la1":30.2991,"la2":30.254,"lo1":-89.0895,"lo2":-89.0444,"dy":0.0017,"dx":0.0017,"nx":28,"ny":28,"refTime":"2023-08-11T03:00:00:Z","depth":0,"parameterNumber":3,"parameterNumberName":"V-component_of_WINDS"},"data":[0,0,0,0,0,0,0,0,0,0,0,0,0,0,0,0,0,0,0,0,0,0,0,0,0,0,0,0,0,0,0,0,0,0,0,0,0,0,0,0,0,0,0,0,0,0,0,0,0,0,0,0,0,0,0,0,0,0,0.3866,0.3867,0,0.3907,0.3907,0.3908,0.3895,0.3894,0.3893,0.3893,0.3939,0.394,0.3942,0,0,0,0,0,0,0,0,0,0,0,0,0,0.3783,0.3784,0.3866,0.3867,0.3867,0.3907,0.3907,0.3908,0.3895,0.3894,0.3893,0.3892,0.3938,0.394,0.3943,0,0,0,0,0,0,0,0,0,0,0,0,0,0.3821,0.3785,0.3866,0.3866,0.3866,0.3907,0.3907,0.3908,0.3896,0.3894,0.3893,0.3892,0.3937,0.394,0.3943,0.3988,0,0,0.3952,0.3954,0,0,0,0,0,0,0,0,0.3818,0.3824,0.3865,0.3866,0.3866,0.3894,0.3894,0.3935,0.3896,0.3885,0.3893,0.3891,0.3925,0.3929,0.394,0.399,0.3992,0.3953,0.3954,0.3956,0.3957,0,0,0,0,0,0,0,0.3816,0.3822,0.3883,0.3866,0.3867,0.3865,0.3869,0.3902,0.3912,0.3885,0.3885,0.3889,0.3925,0.3937,0.3941,0.3992,0.3952,0.3955,0.3957,0.3958,0.4081,0.4083,0,0,0,0,0,0,0.3812,0.382,0.3881,0.3884,0.3839,0.3867,0.3872,0.3887,0.3911,0.3914,0.389,0.3889,0.3932,0.3937,0.3942,0.3996,0.3956,0.3959,0.396,0.408,0.4082,0.4083,0,0,0,0,0,0,0.3811,0.3818,0.388,0.3852,0.3859,0.387,0.3887,0.3888,0.39,0.3915,0.3917,0.39,0.3931,0.3938,0.3976,0.3998,0.396,0.3963,0.4078,0.408,0.4082,0.4105,0,0,0,0,0,0,0.3808,0.3817,0.3834,0.3852,0.3861,0.3912,0.3888,0.389,0.3905,0.3903,0.3925,0.3927,0.3931,0.3972,0.3979,0.4001,0.3965,0.4076,0.4079,0.4082,0.4102,0.4107,0.4112,0,0,0,0,0,0.3805,0.3839,0.3835,0.3842,0.3881,0.3913,0.3918,0.392,0.3906,0.3923,0.3933,0.3927,0.3994,0.3976,0.3984,0.4007,0.4075,0.4078,0.4081,0.41,0.4106,0.4112,0,0,0,0,0,0,0.3825,0.3842,0.3837,0.3877,0.3894,0.3911,0.3932,0.3927,0.3949,0.3947,0.395,0.3955,0.3994,0.4004,0.3984,0.4052,0.4033,0.4038,0.4044,0.405,0.4055,0.4052,0.3968,0,0,0,0,0,0.3834,0.3857,0.3871,0.3906,0.3914,0.3922,0.3936,0.3936,0.3953,0.3961,0.3973,0.3992,0.4017,0.4034,0.4058,0.4103,0.4108,0.4123,0.4128,0.4132,0.4137,0.4161,0.4168,0.4094,0.4094,0.4094,0,0,0.3853,0.3865,0.388,0.391,0.3922,0.3948,0.3928,0.3955,0.3974,0.3965,0.4002,0.4012,0.4033,0.4074,0.4093,0.4084,0.4158,0.4136,0.4139,0.4142,0.4166,0.4173,0.4179,0.4096,0.4096,0.4095,0,0,0.3901,0.3911,0.3941,0.3954,0.3973,0.3978,0.3985,0.4003,0.4008,0.4044,0.4038,0.4061,0.4105,0.412,0.4133,0.4186,0.4181,0.4193,0.4219,0.4243,0.4249,0.4255,0.4274,0.4281,0.4198,0.4198,0.4198,0,0.3922,0.3959,0.3958,0.3986,0.3999,0.3991,0.4022,0.4034,0.4061,0.4071,0.406,0.4114,0.4127,0.4172,0.4185,0.4196,0.4205,0.4191,0.4248,0.4253,0.4258,0.4277,0.4284,0.4199,0.4199,0.4199,0.4199,0,0.3985,0.401,0.4032,0.4056,0.4072,0.4101,0.4106,0.4123,0.4121,0.4128,0.4165,0.418,0.4207,0.4218,0.4218,0.4263,0.4257,0.4247,0.4228,0.4267,0.4284,0.4291,0.4201,0.4201,0.4201,0.42,0,0,0.4047,0.4069,0.4077,0.4088,0.4107,0.4128,0.4157,0.4181,0.4196,0.4214,0.4239,0.4276,0.4266,0.4282,0.4283,0.4304,0.4344,0.4291,0.4292,0.4301,0.4396,0.4404,0.4412,0.4341,0.4342,0.4343,0.4395,0,0.4097,0.4146,0.4146,0.4193,0.4216,0.4208,0.4233,0.4249,0.4255,0.4277,0.4285,0.4311,0.4296,0.4305,0.4325,0.4335,0.4364,0.4331,0.4365,0.4367,0.4361,0.4421,0.443,0.4478,0.4401,0.4402,0.4403,0,0.4162,0.418,0.4228,0.4244,0.4254,0.4277,0.4299,0.432,0.4337,0.4341,0.4357,0.4354,0.4385,0.4364,0.4407,0.4385,0.4399,0.4405,0.4407,0.4412,0.4388,0.4428,0.4493,0.4501,0.4414,0.4413,0.4412,0,0.4203,0.424,0.4274,0.4283,0.4302,0.4318,0.4327,0.4343,0.4358,0.4378,0.4387,0.4411,0.4425,0.4444,0.4448,0.4433,0.4492,0.4471,0.4496,0.4496,0.451,0.4509,0.4579,0.4518,0.4517,0.4517,0.4517,0,0.4259,0.4289,0.4292,0.4313,0.4347,0.4346,0.438,0.4388,0.4402,0.4425,0.4419,0.4442,0.4445,0.4469,0.4472,0.4508,0.4514,0.4518,0.4519,0.4519,0.4519,0.4529,0.4526,0.4519,0.4519,0.4518,0.4518,0,0.4311,0.4314,0.435,0.4365,0.4369,0.4393,0.4406,0.4427,0.4432,0.4461,0.4468,0.4477,0.4504,0.4509,0.4542,0.4544,0.4586,0.4584,0.458,0.458,0.4605,0.4603,0.4685,0.4696,0.4627,0.4627,0.4628,0,0.4347,0.4369,0.4386,0.44,0.4409,0.4432,0.4447,0.4448,0.4463,0.4484,0.4502,0.4528,0.4549,0.4593,0.4603,0.4628,0.4626,0.4653,0.463,0.4629,0.4627,0.4626,0.4628,0.4658,0.4658,0.4659,0.466,0,0.441,0.441,0.4431,0.4452,0.4469,0.4486,0.4502,0.4514,0.4517,0.4535,0.4562,0.4578,0.461,0.4636,0.4661,0.4671,0.4667,0.4666,0.4674,0.4675,0.4672,0.4674,0.4593,0.4665,0.4664,0.4664,0.4664,0.4664,0.4455,0.4475,0.4489,0.4512,0.4524,0.4539,0.4559,0.4566,0.4588,0.4613,0.4612,0.4641,0.4658,0.4691,0.4702,0.4726,0.4718,0.4728,0.4731,0.4734,0.4736,0.4667,0.4731,0.473,0.473,0.473,0.473,0,0.4519,0.4527,0.4548,0.457,0.4588,0.458,0.4598,0.4614,0.4639,0.4654,0.4674,0.4705,0.473,0.4742,0.4767,0.4783,0.4782,0.479,0.4789,0.4792,0.4742,0.4733,0.4791,0.4791,0.4791,0.4791,0.4791,0.4791,0.4554,0.4587,0.4589,0.4628,0.4636,0.4663,0.4674,0.4688,0.47,0.4734,0.4755,0.4761,0.4775,0.4801,0.4824,0.4827,0.4837,0.4846,0.4848,0.4802,0.4796,0.479,0.4782,0.4848,0.4848,0.4896,0.4897,0.4897]}]]